TAY12A EDDH-EBBR

Flight info

Callsign TAY12A
Flight time 0h 55m
Altitude 34000
Route WSN5G/33 WSN N125 SILQI N872 LILSI/N0450F330 Z310 WOODY
Aircraft B738/M-SDE2E3FGHIRWXY/LB1

Departure

Time 2026-05-07 17:53
Airport Hamburg Helmut Schmidt Airport (EDDH)

Arrival

Time 2026-05-07 18:49
Airport Brussels Airport (EBBR)
Time Latitude Longitude Altitude Speed Heading
2026-05-07 17:07 53.62723 9.99415 44 ft 0 kts 241°
2026-05-07 17:46 53.62724 9.99419 44 ft 3 kts 241°
2026-05-07 17:47 53.62737 9.99458 43 ft 4 kts 243°
2026-05-07 17:47 53.62749 9.99498 41 ft 4 kts 233°
2026-05-07 17:47 53.62765 9.99521 44 ft 4 kts 168°
2026-05-07 17:47 53.62769 9.99520 43 ft 1 kts 153°
2026-05-07 17:50 53.62767 9.99522 43 ft 2 kts 153°
2026-05-07 17:50 53.62736 9.99550 45 ft 8 kts 152°
2026-05-07 17:50 53.62672 9.99606 45 ft 13 kts 152°
2026-05-07 17:51 53.62635 9.99724 46 ft 9 kts 80°
2026-05-07 17:51 53.62638 9.99746 43 ft 0 kts 79°
2026-05-07 17:51 53.62638 9.99747 43 ft 0 kts 78°
2026-05-07 17:52 53.62641 9.99767 45 ft 4 kts 73°
2026-05-07 17:52 53.62657 9.99826 45 ft 7 kts 64°
2026-05-07 17:52 53.62696 9.99893 47 ft 9 kts 351°
2026-05-07 17:52 53.62765 9.99833 47 ft 18 kts 333°
2026-05-07 17:53 53.63073 9.99568 44 ft 82 kts 333°
2026-05-07 17:53 53.63753 9.98979 40 ft 136 kts 333°
2026-05-07 17:53 53.64691 9.98174 296 ft 155 kts 333°
2026-05-07 17:53 53.65699 9.97265 673 ft 171 kts 334°
2026-05-07 17:54 53.66747 9.96366 1365 ft 171 kts 337°
2026-05-07 17:54 53.67822 9.95460 1916 ft 181 kts 337°
2026-05-07 17:54 53.69036 9.94434 2169 ft 208 kts 337°
2026-05-07 17:54 53.70354 9.93272 2537 ft 220 kts 330°
2026-05-07 17:55 53.71336 9.91274 3019 ft 230 kts 290°
2026-05-07 17:55 53.71384 9.88491 3201 ft 254 kts 253°
2026-05-07 17:55 53.70788 9.85621 3572 ft 270 kts 249°
2026-05-07 17:55 53.70163 9.82631 4299 ft 271 kts 250°
2026-05-07 17:56 53.69549 9.79618 4996 ft 274 kts 251°
2026-05-07 17:56 53.68941 9.76589 5750 ft 275 kts 251°
2026-05-07 17:56 53.68329 9.73506 6427 ft 279 kts 251°
2026-05-07 17:56 53.67716 9.70395 7149 ft 280 kts 251°
2026-05-07 17:57 53.67096 9.67247 7812 ft 284 kts 251°
2026-05-07 17:57 53.66673 9.65104 8320 ft 285 kts 251°
2026-05-07 17:57 53.65844 9.60912 9351 ft 287 kts 251°
2026-05-07 17:57 53.65177 9.57748 9975 ft 287 kts 245°
2026-05-07 17:58 53.64137 9.54845 10083 ft 292 kts 234°
2026-05-07 17:58 53.62920 9.52089 10092 ft 292 kts 232°
2026-05-07 17:58 53.61686 9.49368 10133 ft 296 kts 233°
2026-05-07 17:58 53.60408 9.46512 10297 ft 316 kts 233°
2026-05-07 17:59 53.59050 9.43429 10472 ft 338 kts 233°
2026-05-07 17:59 53.57621 9.40142 10706 ft 355 kts 234°
2026-05-07 17:59 53.56155 9.36745 11259 ft 361 kts 234°
2026-05-07 17:59 53.54678 9.33323 12016 ft 361 kts 234°
2026-05-07 18:00 53.53203 9.29905 12813 ft 362 kts 234°
2026-05-07 18:00 53.51715 9.26471 13494 ft 366 kts 234°
2026-05-07 18:00 53.50209 9.23000 14188 ft 369 kts 234°
2026-05-07 18:00 53.48691 9.19507 14849 ft 373 kts 234°
2026-05-07 18:01 53.47150 9.15964 15398 ft 380 kts 234°
2026-05-07 18:01 53.45589 9.12378 16131 ft 380 kts 234°
2026-05-07 18:01 53.44021 9.08783 16781 ft 384 kts 234°
2026-05-07 18:01 53.42434 9.05148 17376 ft 389 kts 234°
2026-05-07 18:02 53.39206 8.97766 18627 ft 395 kts 234°
2026-05-07 18:02 53.37580 8.94056 19301 ft 395 kts 234°
2026-05-07 18:02 53.35941 8.90325 19758 ft 401 kts 234°
2026-05-07 18:03 53.34380 8.86442 20297 ft 403 kts 244°
2026-05-07 18:03 53.33363 8.82142 20891 ft 403 kts 251°
2026-05-07 18:03 53.32462 8.77685 21424 ft 406 kts 251°
2026-05-07 18:03 53.31520 8.73194 21877 ft 411 kts 250°
2026-05-07 18:04 53.30529 8.68675 22352 ft 415 kts 250°
2026-05-07 18:04 53.29518 8.64150 22910 ft 416 kts 250°
2026-05-07 18:04 53.28516 8.59592 23404 ft 419 kts 250°
2026-05-07 18:04 53.27516 8.55009 23835 ft 422 kts 250°
2026-05-07 18:05 53.26504 8.50383 24231 ft 425 kts 250°
2026-05-07 18:05 53.25534 8.45710 24633 ft 427 kts 252°
2026-05-07 18:05 53.24646 8.40973 25021 ft 429 kts 253°
2026-05-07 18:05 53.23778 8.36197 25400 ft 431 kts 253°
2026-05-07 18:06 53.22901 8.31401 25775 ft 433 kts 253°
2026-05-07 18:06 53.22005 8.26577 26144 ft 436 kts 252°
2026-05-07 18:06 53.21095 8.21748 26501 ft 438 kts 252°
2026-05-07 18:06 53.20172 8.16888 26839 ft 441 kts 252°
2026-05-07 18:07 53.19240 8.12009 27154 ft 443 kts 252°
2026-05-07 18:07 53.18306 8.07089 27458 ft 446 kts 252°
2026-05-07 18:07 53.17373 8.02142 27819 ft 448 kts 252°
2026-05-07 18:07 53.16439 7.97186 28184 ft 449 kts 252°
2026-05-07 18:08 53.15499 7.92209 28429 ft 452 kts 252°
2026-05-07 18:08 53.14551 7.87211 28765 ft 453 kts 252°
2026-05-07 18:08 53.13600 7.82206 29219 ft 452 kts 252°
2026-05-07 18:08 53.12603 7.77268 29694 ft 450 kts 248°
2026-05-07 18:09 53.11163 7.72641 30065 ft 450 kts 237°
2026-05-07 18:09 53.09284 7.68493 30464 ft 448 kts 231°
2026-05-07 18:09 53.07323 7.64473 30823 ft 448 kts 231°
2026-05-07 18:09 53.05348 7.60423 30936 ft 453 kts 231°
2026-05-07 18:10 53.03364 7.56333 31170 ft 455 kts 231°
2026-05-07 18:10 53.01390 7.52242 31556 ft 453 kts 231°
2026-05-07 18:10 52.99453 7.48216 32358 ft 440 kts 231°
2026-05-07 18:10 52.97583 7.44321 32911 ft 435 kts 231°
2026-05-07 18:11 52.95690 7.40379 33060 ft 440 kts 231°
2026-05-07 18:11 52.91851 7.32398 33540 ft 442 kts 231°
2026-05-07 18:11 52.89934 7.28424 33847 ft 442 kts 231°
2026-05-07 18:12 52.88012 7.24444 33991 ft 441 kts 231°
2026-05-07 18:12 52.84216 7.16602 34075 ft 436 kts 231°
2026-05-07 18:13 52.80378 7.08704 34093 ft 444 kts 231°
2026-05-07 18:13 52.76483 7.00710 34089 ft 448 kts 231°
2026-05-07 18:14 52.72559 6.92685 34084 ft 449 kts 231°
2026-05-07 18:14 52.68667 6.84748 34076 ft 441 kts 231°
2026-05-07 18:15 52.64816 6.76921 34088 ft 440 kts 231°
2026-05-07 18:15 52.60949 6.69085 34076 ft 440 kts 231°
2026-05-07 18:16 52.57084 6.61279 34080 ft 441 kts 231°
2026-05-07 18:16 52.53204 6.53465 34065 ft 441 kts 231°
2026-05-07 18:17 52.49322 6.45672 34083 ft 441 kts 230°
2026-05-07 18:17 52.45438 6.37899 34077 ft 441 kts 230°
2026-05-07 18:18 52.41547 6.30133 34073 ft 441 kts 230°
2026-05-07 18:18 52.37676 6.22433 34071 ft 440 kts 230°
2026-05-07 18:19 52.33781 6.14711 34077 ft 440 kts 230°
2026-05-07 18:19 52.29884 6.07005 34076 ft 439 kts 230°
2026-05-07 18:20 52.25983 5.99316 33944 ft 442 kts 230°
2026-05-07 18:20 52.24018 5.95451 33642 ft 440 kts 230°
2026-05-07 18:20 52.22068 5.91623 33363 ft 438 kts 230°
2026-05-07 18:20 52.20123 5.87810 33121 ft 437 kts 230°
2026-05-07 18:21 52.18173 5.83993 32847 ft 438 kts 230°
2026-05-07 18:21 52.16881 5.81465 32673 ft 439 kts 230°
2026-05-07 18:21 52.14925 5.77646 32408 ft 439 kts 230°
2026-05-07 18:21 52.12968 5.73831 32140 ft 439 kts 230°
2026-05-07 18:22 52.11011 5.70021 31880 ft 439 kts 230°
2026-05-07 18:22 52.09715 5.67500 31709 ft 439 kts 230°
2026-05-07 18:22 52.07091 5.62405 31370 ft 439 kts 230°
2026-05-07 18:22 52.04496 5.57378 31033 ft 438 kts 230°
2026-05-07 18:23 52.03176 5.54823 30866 ft 438 kts 230°
2026-05-07 18:23 52.01210 5.51025 30617 ft 438 kts 230°
2026-05-07 18:23 51.99252 5.47246 30375 ft 438 kts 230°
2026-05-07 18:23 51.97291 5.43469 30120 ft 437 kts 230°
2026-05-07 18:24 51.95332 5.39700 29830 ft 436 kts 230°
2026-05-07 18:24 51.93381 5.35953 29554 ft 435 kts 230°
2026-05-07 18:24 51.91429 5.32210 29256 ft 432 kts 230°
2026-05-07 18:24 51.89497 5.28509 28907 ft 428 kts 230°
2026-05-07 18:25 51.87586 5.24855 28389 ft 422 kts 230°
2026-05-07 18:25 51.85701 5.21255 27866 ft 416 kts 230°
2026-05-07 18:25 51.83842 5.17710 27340 ft 411 kts 230°
2026-05-07 18:25 51.82028 5.14256 26835 ft 406 kts 230°
2026-05-07 18:26 51.80205 5.10789 26332 ft 402 kts 230°
2026-05-07 18:26 51.78402 5.07364 25828 ft 398 kts 230°
2026-05-07 18:26 51.76609 5.03965 25339 ft 395 kts 230°
2026-05-07 18:26 51.74839 5.00611 24850 ft 392 kts 230°
2026-05-07 18:27 51.73077 4.97277 24367 ft 389 kts 230°
2026-05-07 18:27 51.71325 4.93967 23869 ft 386 kts 230°
2026-05-07 18:27 51.69583 4.90681 23353 ft 384 kts 230°
2026-05-07 18:27 51.67848 4.87423 22808 ft 381 kts 228°
2026-05-07 18:28 51.65817 4.84729 22313 ft 379 kts 210°
2026-05-07 18:28 51.63446 4.82906 21868 ft 376 kts 204°
2026-05-07 18:28 51.61031 4.81322 21431 ft 372 kts 203°
2026-05-07 18:28 51.58634 4.79806 21020 ft 368 kts 202°
2026-05-07 18:29 51.56261 4.78321 20633 ft 364 kts 202°
2026-05-07 18:29 51.53905 4.76854 20263 ft 362 kts 202°
2026-05-07 18:29 51.51570 4.75403 19908 ft 359 kts 202°
2026-05-07 18:29 51.49223 4.73944 19563 ft 367 kts 202°
2026-05-07 18:30 51.46795 4.72432 19220 ft 381 kts 202°
2026-05-07 18:30 51.44316 4.70886 18888 ft 381 kts 202°
2026-05-07 18:30 51.41856 4.69352 18419 ft 379 kts 202°
2026-05-07 18:30 51.39405 4.67820 17808 ft 378 kts 202°
2026-05-07 18:31 51.36960 4.66291 17193 ft 376 kts 202°
2026-05-07 18:31 51.34489 4.64951 16622 ft 375 kts 192°
2026-05-07 18:31 51.31915 4.64495 16056 ft 368 kts 184°
2026-05-07 18:31 51.29375 4.64318 15274 ft 365 kts 183°
2026-05-07 18:32 51.26844 4.64192 14483 ft 363 kts 182°
2026-05-07 18:32 51.24341 4.63897 13793 ft 358 kts 194°
2026-05-07 18:32 51.22108 4.62448 13634 ft 336 kts 209°
2026-05-07 18:32 51.20140 4.60627 13500 ft 317 kts 212°
2026-05-07 18:33 51.18312 4.58848 13362 ft 299 kts 212°
2026-05-07 18:33 51.16607 4.57177 13241 ft 283 kts 212°
2026-05-07 18:33 51.14976 4.55573 13124 ft 268 kts 212°
2026-05-07 18:33 51.13424 4.54046 12914 ft 258 kts 212°
2026-05-07 18:34 51.11907 4.52553 12506 ft 256 kts 212°
2026-05-07 18:34 51.10393 4.51062 12060 ft 256 kts 212°
2026-05-07 18:34 51.08869 4.49563 11551 ft 258 kts 212°
2026-05-07 18:34 51.07335 4.48060 11062 ft 260 kts 210°
2026-05-07 18:35 51.05622 4.47189 10539 ft 263 kts 183°
2026-05-07 18:35 51.03815 4.47727 9938 ft 271 kts 155°
2026-05-07 18:35 51.02360 4.49606 9387 ft 273 kts 126°
2026-05-07 18:35 51.01622 4.52357 8863 ft 275 kts 98°
2026-05-07 18:36 51.01750 4.55363 8364 ft 274 kts 76°
2026-05-07 18:36 51.02281 4.58260 7924 ft 272 kts 73°
2026-05-07 18:36 51.02848 4.61089 7590 ft 265 kts 72°
2026-05-07 18:36 51.03407 4.63830 7330 ft 257 kts 72°
2026-05-07 18:37 51.03952 4.66483 7125 ft 247 kts 72°
2026-05-07 18:37 51.04472 4.69001 7073 ft 239 kts 72°
2026-05-07 18:37 51.04974 4.71531 7081 ft 238 kts 79°
2026-05-07 18:37 51.05038 4.74168 7093 ft 241 kts 93°
2026-05-07 18:38 51.04969 4.76826 7084 ft 245 kts 92°
2026-05-07 18:38 51.04906 4.79523 7071 ft 243 kts 92°
2026-05-07 18:38 51.04844 4.82193 7069 ft 241 kts 92°
2026-05-07 18:38 51.04785 4.84855 7069 ft 240 kts 92°
2026-05-07 18:39 51.04672 4.87490 6899 ft 242 kts 104°
2026-05-07 18:39 51.03778 4.89676 6673 ft 234 kts 146°
2026-05-07 18:39 51.02286 4.90393 6424 ft 225 kts 187°
2026-05-07 18:39 51.00872 4.89607 6318 ft 209 kts 212°
2026-05-07 18:40 50.99922 4.87990 6143 ft 197 kts 249°
2026-05-07 18:40 50.99819 4.85880 6081 ft 194 kts 288°
2026-05-07 18:40 51.00421 4.83955 6100 ft 198 kts 301°
2026-05-07 18:40 51.01148 4.82088 6091 ft 199 kts 302°
2026-05-07 18:41 51.01884 4.80232 6073 ft 198 kts 302°
2026-05-07 18:41 51.02618 4.78392 6066 ft 196 kts 302°
2026-05-07 18:41 51.03346 4.76571 6070 ft 194 kts 302°
2026-05-07 18:41 51.04068 4.74764 6071 ft 193 kts 302°
2026-05-07 18:42 51.04910 4.73121 6063 ft 195 kts 328°
2026-05-07 18:42 51.06185 4.72526 5996 ft 194 kts
2026-05-07 18:42 51.07409 4.73294 5731 ft 192 kts 45°
2026-05-07 18:42 51.08043 4.75095 5430 ft 190 kts 84°
2026-05-07 18:43 51.07807 4.77123 5118 ft 190 kts 123°
2026-05-07 18:43 51.06821 4.78496 4821 ft 191 kts 152°
2026-05-07 18:43 51.05644 4.79466 4586 ft 191 kts 152°
2026-05-07 18:43 51.04403 4.80245 4260 ft 195 kts 176°
2026-05-07 18:44 51.03124 4.79585 4066 ft 211 kts 215°
2026-05-07 18:44 51.01837 4.78350 4095 ft 218 kts 205°
2026-05-07 18:44 51.00390 4.77409 3666 ft 228 kts 198°
2026-05-07 18:44 50.98964 4.76390 3374 ft 223 kts 221°
2026-05-07 18:45 50.98189 4.74385 3171 ft 209 kts 252°
2026-05-07 18:45 50.97675 4.72297 2951 ft 199 kts 245°
2026-05-07 18:45 50.97096 4.70349 2755 ft 193 kts 244°
2026-05-07 18:45 50.96533 4.68449 2530 ft 188 kts 245°
2026-05-07 18:46 50.95984 4.66574 2352 ft 186 kts 245°
2026-05-07 18:46 50.95438 4.64699 2138 ft 190 kts 245°
2026-05-07 18:46 50.94887 4.62804 1885 ft 188 kts 245°
2026-05-07 18:46 50.94356 4.60978 1647 ft 176 kts 245°
2026-05-07 18:47 50.93866 4.59290 1416 ft 164 kts 245°
2026-05-07 18:47 50.93414 4.57736 1243 ft 150 kts 245°
2026-05-07 18:47 50.92981 4.56244 1016 ft 147 kts 245°
2026-05-07 18:47 50.92555 4.54771 822 ft 147 kts 246°
2026-05-07 18:48 50.92126 4.53294 642 ft 148 kts 246°
2026-05-07 18:48 50.91699 4.51815 431 ft 147 kts 246°
2026-05-07 18:48 50.91268 4.50332 207 ft 148 kts 245°
2026-05-07 18:48 50.90851 4.48896 119 ft 133 kts 245°
2026-05-07 18:49 50.90554 4.47864 121 ft 83 kts 245°
2026-05-07 18:49 50.90336 4.47113 122 ft 53 kts 245°
2026-05-07 18:49 50.90286 4.46753 124 ft 23 kts 291°
2026-05-07 18:49 50.90332 4.46597 127 ft 3 kts 296°
2026-05-07 18:50 50.90339 4.46572 126 ft 3 kts 296°
2026-05-07 18:50 50.90347 4.46547 126 ft 2 kts 295°
2026-05-07 18:50 50.90354 4.46521 127 ft 3 kts 291°
2026-05-07 18:50 50.90361 4.46465 130 ft 7 kts 275°
2026-05-07 18:51 50.90350 4.46361 131 ft 12 kts 248°
2026-05-07 18:51 50.90317 4.46243 133 ft 12 kts 245°
2026-05-07 18:51 50.90282 4.46128 134 ft 11 kts 244°
2026-05-07 18:51 50.90251 4.46016 136 ft 11 kts 245°
2026-05-07 18:52 50.90219 4.45907 137 ft 11 kts 245°
2026-05-07 18:52 50.90189 4.45802 138 ft 10 kts 245°
2026-05-07 18:52 50.90159 4.45699 139 ft 10 kts 245°
2026-05-07 18:52 50.90129 4.45596 139 ft 11 kts 245°
2026-05-07 18:53 50.90108 4.45498 140 ft 7 kts 292°
2026-05-07 18:53 50.90151 4.45455 140 ft 7 kts 335°
2026-05-07 18:53 50.90184 4.45432 140 ft 0 kts 335°